Russell, KS

2:06 PM CDT on June 28, 2017 (GMT -0500)
Russell Municipal

Weather History for KRSL - June, 2013

Change the Weather History Date:

Tuesday, June 25, 2013

  Actual Average Record
Temperature  
Mean Temperature 88 °F -  
Max Temperature 102 °F 90 °F 108 °F (1978)
Min Temperature 73 °F 65 °F 48 °F (1958)
Cooling Degree Days 22    
Growing Degree Days 38 (Base 50)    
Moisture  
Dew Point 60 °F    
Average Humidity 46    
Maximum Humidity 73    
Minimum Humidity 18    
Precipitation  
Precipitation 0.00 in - - ()
Sea Level Pressure  
Sea Level Pressure 29.64 in    
Wind  
Wind Speed 21 mph (South)    
Max Wind Speed 26 mph    
Max Gust Speed 36 mph    
Visibility 10 miles    
Events      
Averages and records for this station are not official NWS values.
T = Trace of Precipitation, MM = Missing Value Source: NWS Daily Summary

Daily Weather History Graph

Daily Weather History Graph

Search for Another Location

Airport or City:

Trip Planner

Search our weather history database for the weather conditions in past years. The results will help you decide how hot, cold, wet, or windy it might be!

Date:

Astronomy

Jun. 25, 2013 Rise Set
Actual Time 6:11 AM CDT 9:04 PM CDT
Civil Twilight 5:39 AM CDT 9:36 PM CDT
Nautical Twilight 4:58 AM CDT 10:16 PM CDT
Astronomical Twilight 4:12 AM CDT 11:03 PM CDT
Moon 10:52 PM CDT (6/25) 8:51 AM CDT (6/25)
Length of Visible Light 15h 57m
Length of Day
14h 53m
Waning Gibbous, 92% of the Moon is Illuminated
Jun 25
Waning Gibbous
Jun 29
Last Quarter
Jul 8
New
Jul 15
First Quarter
Jul 22
Full

Hourly Weather History & Observations

Time (CDT) Temp. Heat Index Dew Point Humidity Pressure Visibility Wind Dir Wind Speed Gust Speed Precip Events Conditions
12:53 AM 79.0 °F - 66.0 °F 64% 29.71 in 10.0 mi SSE 24.2 mph 31.1 mph N/A   Clear
1:53 AM 77.0 °F - 66.0 °F 69% 29.69 in 10.0 mi SSE 25.3 mph 34.5 mph N/A   Clear
2:53 AM 77.0 °F - 66.0 °F 69% 29.68 in 10.0 mi SSE 21.9 mph 33.4 mph N/A   Clear
3:53 AM 75.9 °F - 66.0 °F 71% 29.69 in 10.0 mi SSE 21.9 mph 35.7 mph N/A   Clear
4:53 AM 75.0 °F - 64.9 °F 71% 29.65 in 10.0 mi SSE 24.2 mph 32.2 mph N/A   Clear
5:53 AM 75.0 °F - 64.9 °F 71% 29.65 in 10.0 mi SSE 21.9 mph 31.1 mph N/A   Clear
6:53 AM 73.9 °F - 64.9 °F 73% 29.63 in 10.0 mi South 26.5 mph 32.2 mph N/A   Clear
7:53 AM 75.9 °F - 64.0 °F 67% 29.63 in 10.0 mi South 23.0 mph 31.1 mph N/A   Clear
8:53 AM 79.0 °F - 64.0 °F 60% 29.62 in 10.0 mi South 24.2 mph 35.7 mph N/A   Clear
9:53 AM 82.0 °F 83.4 °F 64.0 °F 54% 29.61 in 10.0 mi South 26.5 mph 35.7 mph N/A   Clear
10:53 AM 86.0 °F 87.3 °F 64.0 °F 48% 29.59 in 10.0 mi South 25.3 mph 31.1 mph N/A   Clear
11:53 AM 91.9 °F 91.8 °F 61.0 °F 35% 29.59 in 10.0 mi SSW 19.6 mph 29.9 mph N/A   Clear
12:53 PM 98.1 °F 97.7 °F 59.0 °F 27% 29.57 in 10.0 mi SSW 20.7 mph 32.2 mph N/A   Clear
1:53 PM 102.0 °F - 51.1 °F 18% 29.54 in 10.0 mi WSW 21.9 mph 28.8 mph N/A   Clear
2:53 PM 99.0 °F - 52.0 °F 21% 29.57 in 10.0 mi WNW 16.1 mph 27.6 mph N/A   Clear
3:53 PM 100.0 °F 99.7 °F 57.9 °F 25% 29.57 in 10.0 mi NW 17.3 mph - N/A   Clear
4:53 PM 100.0 °F 100.2 °F 59.0 °F 26% 29.59 in 10.0 mi NW 19.6 mph 28.8 mph N/A   Clear
5:53 PM 99.0 °F 97.7 °F 55.9 °F 24% 29.62 in 10.0 mi NNW 23.0 mph - N/A   Clear
6:53 PM 98.1 °F - 50.0 °F 20% 29.64 in 10.0 mi NNW 16.1 mph - N/A   Clear
7:53 PM 93.9 °F 91.7 °F 54.0 °F 26% 29.66 in 10.0 mi North 8.1 mph - N/A   Clear
8:53 PM 87.1 °F 85.7 °F 55.9 °F 35% 29.67 in 10.0 mi NNE 4.6 mph - N/A   Clear
9:53 PM 82.9 °F 82.0 °F 55.0 °F 38% 29.68 in 10.0 mi East 6.9 mph - N/A   Clear
10:53 PM 78.1 °F - 55.9 °F 46% 29.72 in 10.0 mi ESE 8.1 mph - N/A   Clear
11:53 PM 75.0 °F - 55.0 °F 50% 29.73 in 10.0 mi SE 10.4 mph - N/A   Clear